View from above orbital plane
|
View from above satellite
|
Ground track
|
The orbit data is extracted from the following two-line orbital elements,
1 23278U 94061A 21059.58263622 .00000815 00000-0 66872-4 0 9990
2 23278 82.9776 249.9932 0878619 120.8095 248.2535 13.57062933294525
Epoch (UTC): | 28 February 2021 13:58:59 |
Eccentricity: | 0.0878619 |
inclination: | 82.9776° |
perigee height: | 394 km |
apogee height: | 1699 km |
right ascension of ascending node: | 249.9932° |
argument of perigee: | 120.8095° |
revolutions per day: | 13.57062933 |
mean anomaly at epoch: | 248.2535° |
orbit number at epoch: | 29452 |
The dashed part of the orbit path shows where the satellite is in the earth's shadow,
|
|